CDT,Max TemperatureF,Mean TemperatureF,Min TemperatureF,Max Dew PointF,MeanDew PointF,Min DewpointF,Max Humidity, Mean Humidity, Min Humidity, Max Sea Level PressureIn, Mean Sea Level PressureIn, Min Sea Level PressureIn, Max VisibilityMiles, Mean VisibilityMiles, Min VisibilityMiles, Max Wind SpeedMPH, Mean Wind SpeedMPH, Max Gust SpeedMPH,PrecipitationIn, CloudCover, Events, WindDirDegrees
2013-10-1,86,75,64,68,64,62,93,74,55,30.10,30.05,30.00,10,10,10,13,6,15,0.00,4,,71
2013-10-2,86,77,68,68,65,63,90,71,51,30.10,30.06,30.03,10,10,10,13,3,17,0.00,3,,72
2013-10-3,87,76,65,69,66,63,93,71,48,30.10,30.06,30.01,10,10,10,10,3,14,0.00,0,,104
2013-10-4,91,80,68,71,69,66,97,72,47,30.11,30.06,30.01,10,10,10,10,3,14,0.00,1,,101
2013-10-5,91,80,69,72,68,63,97,69,41,30.08,30.02,29.97,10,10,10,12,3,15,0.00,1,,90
2013-10-6,76,73,70,73,71,68,100,95,90,29.97,29.91,29.83,10,10,10,12,3,15,0.24,4,Rain,119
2013-10-7,78,72,66,72,70,58,100,83,66,29.92,29.83,29.79,10,9,2,15,6,18,1.55,8,Rain,337
2013-10-8,85,74,62,69,61,55,90,75,59,30.02,29.95,29.90,10,10,10,12,7,15,0.00,5,,22
2013-10-9,72,66,60,62,60,59,100,84,68,30.14,30.08,30.02,10,10,10,16,6,20,0.00,4,,56
2013-10-10,83,70,57,64,59,56,100,73,45,30.12,30.06,30.01,10,10,10,10,1,17,0.00,0,,351
2013-10-11,86,73,59,64,60,56,97,69,40,30.08,30.02,29.97,10,10,10,10,2,24,0.00,0,,334
2013-10-12,86,74,61,64,60,57,93,67,40,30.09,30.04,30.00,10,10,10,14,2,20,0.00,3,,336
2013-10-13,85,72,58,64,60,56,93,67,40,30.15,30.09,30.05,10,10,10,10,2,23,0.00,1,,11
2013-10-14,82,73,63,64,62,61,93,72,51,30.14,30.09,30.04,10,10,10,14,6,18,0.00,2,,52
2013-10-15,79,69,59,64,62,59,97,78,58,30.08,30.04,29.99,10,10,10,12,4,15,0.00,4,,44
2013-10-16,84,72,59,64,61,57,97,72,47,30.04,29.99,29.94,10,10,10,7,1,18,0.00,1,,326
2013-10-17,86,74,61,70,65,59,97,74,51,29.99,29.94,29.88,10,10,10,13,4,21,0.01,3,,239
2013-10-18,74,70,66,72,68,66,100,90,79,30.00,29.95,29.91,10,10,9,10,4,13,0.05,7,Rain,3
2013-10-19,75,70,65,66,64,58,93,81,68,29.98,29.95,29.90,10,10,10,12,4,14,0.01,6,Rain,30
2013-10-20,79,70,61,59,57,56,90,68,45,30.04,29.99,29.96,10,10,10,14,4,18,0.00,2,,17
2013-10-21,72,67,61,64,60,55,93,83,73,30.06,30.01,29.98,10,10,10,8,3,10,T,1,Rain,43
2013-10-22,75,68,61,66,64,60,93,81,68,29.98,29.93,29.87,10,10,8,7,3,9,0.04,4,Rain,338
2013-10-23,75,62,48,59,46,34,97,61,25,30.10,29.99,29.91,10,10,10,21,6,24,0.00,0,,314
2013-10-24,75,60,44,53,44,36,92,60,27,30.23,30.16,30.10,10,10,10,10,2,,0.00,0,,55
2013-10-25,69,56,43,49,40,27,93,59,24,30.37,30.29,30.19,10,10,10,14,5,21,0.00,0,,8
2013-10-26,70,54,38,45,37,32,89,58,26,30.30,30.24,30.17,10,10,9,9,2,14,0.00,0,,66
2013-10-27,76,59,41,54,46,39,92,62,31,30.19,30.14,30.10,10,10,10,8,1,15,0.00,0,,192
2013-10-28,80,65,50,55,51,48,96,65,33,30.24,30.19,30.13,10,10,10,7,1,13,0.00,0,,87
2013-10-29,81,66,51,59,54,49,93,66,39,30.30,30.24,30.19,10,10,10,10,1,14,0.00,0,,93
2013-10-30,84,69,53,59,54,50,93,63,33,30.28,30.20,30.14,10,10,10,13,2,20,0.00,0,,91
2013-10-31,82,70,58,69,63,55,93,72,51,30.13,30.02,29.93,10,10,10,18,7,25,T,1,,165